Time,TemperatureF,DewpointF,PressureIn,WindDirection,WindDirectionDegrees,WindSpeedMPH,WindSpeedGustMPH,Humidity,HourlyPrecipIn,Conditions,Clouds,dailyrainin,SoftwareType,DateUTC
2013-12-09 00:00:00,31.0,26.0,-100.00,South,173,3.0,-999.0,83,0.00,,,-99.99,,2013-12-09 08:00:00,
2013-12-09 00:42:00,31.0,26.0,-100.00,South,173,3.0,-999.0,83,0.00,,,-99.99,,2013-12-09 08:42:00,
2013-12-09 00:52:00,31.0,26.0,-100.00,South,173,3.0,-999.0,83,0.00,,,-99.99,,2013-12-09 08:52:00,
2013-12-09 01:00:00,29.0,25.0,-100.00,SSE,161,3.0,-999.0,84,0.00,,,-99.99,,2013-12-09 09:00:00,
2013-12-09 01:43:00,29.0,25.0,-100.00,SSE,161,3.0,-999.0,84,0.00,,,-99.99,,2013-12-09 09:43:00,
2013-12-09 01:54:00,29.0,25.0,-100.00,SSE,161,3.0,-999.0,84,0.00,,,-99.99,,2013-12-09 09:54:00,
2013-12-09 02:00:00,29.0,25.0,-100.00,SSE,154,1.0,-999.0,85,0.00,,,-99.99,,2013-12-09 10:00:00,
2013-12-09 02:43:00,29.0,25.0,-100.00,SSE,154,1.0,-999.0,85,0.00,,,-99.99,,2013-12-09 10:43:00,
2013-12-09 02:53:00,29.0,25.0,-100.00,SSE,154,1.0,-999.0,85,0.00,,,-99.99,,2013-12-09 10:53:00,
2013-12-09 03:00:00,29.0,25.0,-100.00,South,174,3.0,-999.0,86,0.00,,,-99.99,,2013-12-09 11:00:00,
2013-12-09 03:42:00,29.0,25.0,-100.00,South,174,3.0,-999.0,86,0.00,,,-99.99,,2013-12-09 11:42:00,
2013-12-09 03:53:00,29.0,25.0,-100.00,South,174,3.0,-999.0,86,0.00,,,-99.99,,2013-12-09 11:53:00,
2013-12-09 04:00:00,28.0,24.0,-100.00,SSE,163,3.0,-999.0,84,0.00,,,-99.99,,2013-12-09 12:00:00,
2013-12-09 04:42:00,28.0,24.0,-100.00,SSE,163,3.0,-999.0,84,0.00,,,-99.99,,2013-12-09 12:42:00,
2013-12-09 04:52:00,28.0,24.0,-100.00,SSE,163,3.0,-999.0,84,0.00,,,-99.99,,2013-12-09 12:52:00,
2013-12-09 05:00:00,27.0,24.0,-100.00,South,189,2.0,-999.0,87,0.00,,,-99.99,,2013-12-09 13:00:00,
2013-12-09 05:42:00,27.0,24.0,-100.00,South,189,2.0,-999.0,87,0.00,,,-99.99,,2013-12-09 13:42:00,
2013-12-09 05:52:00,27.0,24.0,-100.00,South,189,2.0,-999.0,87,0.00,,,-99.99,,2013-12-09 13:52:00,
2013-12-09 06:00:00,27.0,23.0,-100.00,SW,234,3.0,-999.0,85,0.00,,,-99.99,,2013-12-09 14:00:00,
2013-12-09 06:42:00,27.0,23.0,-100.00,SW,234,3.0,-999.0,85,0.00,,,-99.99,,2013-12-09 14:42:00,
2013-12-09 06:52:00,27.0,23.0,-100.00,SW,234,3.0,-999.0,85,0.00,,,-99.99,,2013-12-09 14:52:00,
2013-12-09 07:00:00,27.0,23.0,-100.00,South,188,2.0,-999.0,87,0.00,,,-99.99,,2013-12-09 15:00:00,
2013-12-09 07:43:00,27.0,23.0,-100.00,South,188,2.0,-999.0,87,0.00,,,-99.99,,2013-12-09 15:43:00,
2013-12-09 07:53:00,27.0,23.0,-100.00,South,188,2.0,-999.0,87,0.00,,,-99.99,,2013-12-09 15:53:00,
2013-12-09 08:00:00,27.0,24.0,-100.00,SE,126,4.0,-999.0,87,0.00,,,-99.99,,2013-12-09 16:00:00,
2013-12-09 08:43:00,27.0,24.0,-100.00,SE,126,4.0,-999.0,87,0.00,,,-99.99,,2013-12-09 16:43:00,
2013-12-09 08:53:00,27.0,24.0,-100.00,SE,126,4.0,-999.0,87,0.00,,,-99.99,,2013-12-09 16:53:00,
2013-12-09 09:00:00,32.0,27.0,-100.00,ESE,122,3.0,-999.0,81,0.00,,,-99.99,,2013-12-09 17:00:00,
2013-12-09 09:42:00,32.0,27.0,-100.00,ESE,122,3.0,-999.0,81,0.00,,,-99.99,,2013-12-09 17:42:00,
2013-12-09 09:53:00,32.0,27.0,-100.00,ESE,122,3.0,-999.0,81,0.00,,,-99.99,,2013-12-09 17:53:00,
2013-12-09 10:00:00,37.0,28.0,-100.00,SSE,163,2.0,-999.0,70,0.00,,,-99.99,,2013-12-09 18:00:00,
2013-12-09 10:43:00,37.0,28.0,-100.00,SSE,163,2.0,-999.0,70,0.00,,,-99.99,,2013-12-09 18:43:00,
2013-12-09 10:52:00,37.0,28.0,-100.00,SSE,163,2.0,-999.0,70,0.00,,,-99.99,,2013-12-09 18:52:00,
2013-12-09 11:00:00,40.0,29.0,-100.00,NW,309,3.0,-999.0,62,0.00,,,-99.99,,2013-12-09 19:00:00,
2013-12-09 11:43:00,40.0,29.0,-100.00,NW,309,3.0,-999.0,62,0.00,,,-99.99,,2013-12-09 19:43:00,
2013-12-09 11:52:00,40.0,29.0,-100.00,NW,309,3.0,-999.0,62,0.00,,,-99.99,,2013-12-09 19:52:00,
2013-12-09 12:00:00,44.0,28.0,-100.00,ESE,117,1.0,-999.0,52,0.00,,,-99.99,,2013-12-09 20:00:00,
2013-12-09 12:42:00,44.0,28.0,-100.00,ESE,117,1.0,-999.0,52,0.00,,,-99.99,,2013-12-09 20:42:00,
2013-12-09 12:53:00,44.0,28.0,-100.00,ESE,117,1.0,-999.0,52,0.00,,,-99.99,,2013-12-09 20:53:00,
2013-12-09 13:00:00,45.0,28.0,-100.00,NW,318,6.0,-999.0,52,0.00,,,-99.99,,2013-12-09 21:00:00,
2013-12-09 13:44:00,45.0,28.0,-100.00,NW,318,6.0,-999.0,52,0.00,,,-99.99,,2013-12-09 21:44:00,
2013-12-09 13:53:00,45.0,28.0,-100.00,NW,318,6.0,-999.0,52,0.00,,,-99.99,,2013-12-09 21:53:00,
2013-12-09 14:00:00,46.0,29.0,-100.00,SW,219,3.0,-999.0,51,0.00,,,-99.99,,2013-12-09 22:00:00,
2013-12-09 14:43:00,46.0,29.0,-100.00,SW,219,3.0,-999.0,51,0.00,,,-99.99,,2013-12-09 22:43:00,
2013-12-09 14:53:00,46.0,29.0,-100.00,SW,219,3.0,-999.0,51,0.00,,,-99.99,,2013-12-09 22:53:00,
2013-12-09 15:00:00,48.0,28.0,-100.00,WNW,286,6.0,-999.0,46,0.00,,,-99.99,,2013-12-09 23:00:00,
2013-12-09 15:43:00,48.0,28.0,-100.00,WNW,286,6.0,-999.0,46,0.00,,,-99.99,,2013-12-09 23:43:00,
2013-12-09 15:53:00,48.0,28.0,-100.00,WNW,286,6.0,-999.0,46,0.00,,,-99.99,,2013-12-09 23:53:00,
2013-12-09 16:00:00,47.0,27.0,-100.00,NNW,336,6.0,-999.0,44,0.00,,,-99.99,,2013-12-10 00:00:00,
2013-12-09 16:42:00,47.0,27.0,-100.00,NNW,336,6.0,-999.0,44,0.00,,,-99.99,,2013-12-10 00:42:00,
2013-12-09 16:53:00,47.0,27.0,-100.00,NNW,336,6.0,-999.0,44,0.00,,,-99.99,,2013-12-10 00:53:00,
2013-12-09 17:00:00,45.0,29.0,-100.00,NW,324,4.0,-999.0,52,0.00,,,-99.99,,2013-12-10 01:00:00,
2013-12-09 17:42:00,45.0,29.0,-100.00,NW,324,4.0,-999.0,52,0.00,,,-99.99,,2013-12-10 01:42:00,
2013-12-09 17:52:00,45.0,29.0,-100.00,NW,324,4.0,-999.0,52,0.00,,,-99.99,,2013-12-10 01:52:00,
2013-12-09 18:00:00,41.0,29.0,-100.00,NNW,331,1.0,-999.0,60,0.00,,,-99.99,,2013-12-10 02:00:00,
2013-12-09 18:42:00,41.0,29.0,-100.00,NNW,331,1.0,-999.0,60,0.00,,,-99.99,,2013-12-10 02:42:00,
2013-12-09 18:52:00,41.0,29.0,-100.00,NNW,331,1.0,-999.0,60,0.00,,,-99.99,,2013-12-10 02:52:00,
2013-12-09 19:00:00,38.0,27.0,-100.00,ESE,112,1.0,-999.0,65,0.00,,,-99.99,,2013-12-10 03:00:00,
2013-12-09 19:43:00,38.0,27.0,-100.00,ESE,112,1.0,-999.0,65,0.00,,,-99.99,,2013-12-10 03:43:00,
2013-12-09 19:53:00,38.0,27.0,-100.00,ESE,112,1.0,-999.0,65,0.00,,,-99.99,,2013-12-10 03:53:00,
2013-12-09 20:00:00,36.0,28.0,-100.00,East,82,4.0,-999.0,72,0.00,,,-99.99,,2013-12-10 04:00:00,
2013-12-09 20:43:00,36.0,28.0,-100.00,East,82,4.0,-999.0,72,0.00,,,-99.99,,2013-12-10 04:43:00,
2013-12-09 20:53:00,36.0,28.0,-100.00,East,82,4.0,-999.0,72,0.00,,,-99.99,,2013-12-10 04:53:00,
2013-12-09 21:00:00,34.0,28.0,-100.00,ESE,115,4.0,-999.0,76,0.00,,,-99.99,,2013-12-10 05:00:00,
2013-12-09 21:42:00,34.0,28.0,-100.00,ESE,115,4.0,-999.0,76,0.00,,,-99.99,,2013-12-10 05:42:00,
2013-12-09 21:53:00,34.0,28.0,-100.00,ESE,115,4.0,-999.0,76,0.00,,,-99.99,,2013-12-10 05:53:00,
2013-12-09 22:00:00,33.0,27.0,-100.00,East,98,1.0,-999.0,77,0.00,,,-99.99,,2013-12-10 06:00:00,
2013-12-09 22:42:00,33.0,27.0,-100.00,East,98,1.0,-999.0,77,0.00,,,-99.99,,2013-12-10 06:42:00,
2013-12-09 22:52:00,33.0,27.0,-100.00,East,98,1.0,-999.0,77,0.00,,,-99.99,,2013-12-10 06:52:00,
2013-12-09 23:00:00,33.0,27.0,-100.00,SE,130,1.0,-999.0,78,0.00,,,-99.99,,2013-12-10 07:00:00,
2013-12-09 23:42:00,33.0,27.0,-100.00,SE,130,1.0,-999.0,78,0.00,,,-99.99,,2013-12-10 07:42:00,
2013-12-09 23:52:00,33.0,27.0,-100.00,SE,130,1.0,-999.0,78,0.00,,,-99.99,,2013-12-10 07:52:00,